Time,TemperatureF,DewpointF,PressureIn,WindDirection,WindDirectionDegrees,WindSpeedMPH,WindSpeedGustMPH,Humidity,HourlyPrecipIn,Conditions,Clouds,dailyrainin,SolarRadiationWatts/m^2,SoftwareType,DateUTC
2013-04-02 00:00:00,70.5,61.8,29.72,SE,138,9.0,15.0,74,0.00,,---,0.00,0.00,VWS V14.00,2013-04-02 05:00:00,
2013-04-02 00:05:00,70.3,61.6,29.73,SE,140,14.0,15.0,74,0.00,,---,0.00,0.00,VWS V14.00,2013-04-02 05:05:00,
2013-04-02 00:10:00,70.1,61.8,29.72,SE,140,9.0,15.0,75,0.00,,---,0.00,0.00,VWS V14.00,2013-04-02 05:10:00,
2013-04-02 00:15:00,69.9,61.6,29.72,SE,133,6.0,17.0,75,0.00,,---,0.00,0.00,VWS V14.00,2013-04-02 05:15:00,
2013-04-02 00:20:00,69.8,61.9,29.72,SE,134,11.0,17.0,76,0.00,,---,0.00,0.00,VWS V14.00,2013-04-02 05:20:00,
2013-04-02 00:25:00,69.6,61.7,29.71,SE,134,6.0,12.0,76,0.00,,---,0.00,0.00,VWS V14.00,2013-04-02 05:25:00,
2013-04-02 00:30:00,69.4,61.5,29.71,SE,134,8.0,17.0,76,0.00,,---,0.00,0.00,VWS V14.00,2013-04-02 05:30:00,
2013-04-02 00:35:00,69.3,61.8,29.71,SE,136,7.0,17.0,77,0.00,,---,0.00,0.00,VWS V14.00,2013-04-02 05:35:00,
2013-04-02 00:40:00,69.1,61.6,29.70,SE,136,9.0,17.0,77,0.00,,---,0.00,0.00,VWS V14.00,2013-04-02 05:40:00,
2013-04-02 00:45:00,69.0,61.5,29.71,SE,136,5.0,9.0,77,0.00,,---,0.00,0.00,VWS V14.00,2013-04-02 05:45:00,
2013-04-02 00:50:00,68.7,61.2,29.70,SE,137,7.0,14.0,77,0.00,,---,0.00,0.00,VWS V14.00,2013-04-02 05:50:00,
2013-04-02 00:55:00,68.5,61.0,29.70,SE,136,7.0,13.0,77,0.00,,---,0.00,0.00,VWS V14.00,2013-04-02 05:55:00,
2013-04-02 01:00:00,68.3,60.8,29.69,SE,134,12.0,16.0,77,0.00,,---,0.00,0.00,VWS V14.00,2013-04-02 06:00:00,
2013-04-02 01:05:00,68.1,60.6,29.69,SE,134,5.0,14.0,77,0.00,,---,0.00,0.00,VWS V14.00,2013-04-02 06:05:00,
2013-04-02 01:10:00,67.9,60.4,29.69,SE,134,7.0,14.0,77,0.00,,---,0.00,0.00,VWS V14.00,2013-04-02 06:10:00,
2013-04-02 01:15:00,67.7,60.6,29.69,SE,134,8.0,14.0,78,0.00,,---,0.00,0.00,VWS V14.00,2013-04-02 06:15:00,
2013-04-02 01:20:00,67.6,60.5,29.69,SE,135,14.0,15.0,78,0.00,,---,0.00,0.00,VWS V14.00,2013-04-02 06:20:00,
2013-04-02 01:25:00,67.3,60.2,29.70,SE,134,11.0,13.0,78,0.00,,---,0.00,0.00,VWS V14.00,2013-04-02 06:25:00,
2013-04-02 01:30:00,67.1,60.0,29.69,SE,131,9.0,14.0,78,0.00,,---,0.00,0.00,VWS V14.00,2013-04-02 06:30:00,
2013-04-02 01:35:00,66.9,59.8,29.69,SE,130,6.0,15.0,78,0.00,,---,0.00,0.00,VWS V14.00,2013-04-02 06:35:00,
2013-04-02 01:40:00,66.7,59.6,29.68,SE,134,7.0,16.0,78,0.00,,---,0.00,0.00,VWS V14.00,2013-04-02 06:40:00,
2013-04-02 01:45:00,66.5,59.8,29.67,SE,130,5.0,14.0,79,0.00,,---,0.00,0.00,VWS V14.00,2013-04-02 06:45:00,
2013-04-02 01:50:00,66.3,60.0,29.67,SE,130,8.0,16.0,80,0.00,,---,0.00,0.00,VWS V14.00,2013-04-02 06:50:00,
2013-04-02 01:55:00,66.2,59.9,29.67,SE,130,4.0,13.0,80,0.00,,---,0.00,0.00,VWS V14.00,2013-04-02 06:55:00,
2013-04-02 02:00:00,66.0,60.0,29.67,SSE,158,6.0,15.0,81,0.00,,---,0.00,0.00,VWS V14.00,2013-04-02 07:00:00,
2013-04-02 02:05:00,65.7,59.7,29.67,SSE,155,12.0,16.0,81,0.00,,---,0.00,0.00,VWS V14.00,2013-04-02 07:05:00,
2013-04-02 02:10:00,65.5,59.9,29.67,SSE,153,8.0,18.0,82,0.00,,---,0.00,0.00,VWS V14.00,2013-04-02 07:10:00,
2013-04-02 02:15:00,65.3,59.7,29.67,SE,143,11.0,18.0,82,0.00,,---,0.00,0.00,VWS V14.00,2013-04-02 07:15:00,
2013-04-02 02:20:00,65.2,59.9,29.67,SE,142,8.0,18.0,83,0.00,,---,0.00,0.00,VWS V14.00,2013-04-02 07:20:00,
2013-04-02 02:25:00,65.0,59.7,29.67,SE,144,11.0,14.0,83,0.00,,---,0.00,0.00,VWS V14.00,2013-04-02 07:25:00,
2013-04-02 02:30:00,65.0,60.0,29.67,SE,143,9.0,15.0,84,0.00,,---,0.00,0.00,VWS V14.00,2013-04-02 07:30:00,
2013-04-02 02:35:00,64.9,60.0,29.66,SE,140,15.0,18.0,84,0.00,,---,0.00,0.00,VWS V14.00,2013-04-02 07:35:00,
2013-04-02 02:40:00,64.8,59.9,29.66,SE,138,5.0,18.0,84,0.00,,---,0.00,0.00,VWS V14.00,2013-04-02 07:40:00,
2013-04-02 02:45:00,64.8,59.9,29.66,SE,140,10.0,15.0,84,0.00,,---,0.00,0.00,VWS V14.00,2013-04-02 07:45:00,
2013-04-02 02:50:00,64.7,60.1,29.66,SE,136,6.0,18.0,85,0.00,,---,0.00,0.00,VWS V14.00,2013-04-02 07:50:00,
2013-04-02 02:55:00,64.7,60.1,29.66,SE,139,6.0,15.0,85,0.00,,---,0.00,0.00,VWS V14.00,2013-04-02 07:55:00,
2013-04-02 03:00:00,64.7,59.8,29.66,SE,128,5.0,16.0,84,0.00,,---,0.00,0.00,VWS V14.00,2013-04-02 08:00:00,
2013-04-02 03:05:00,64.7,59.8,29.67,SE,131,5.0,20.0,84,0.00,,---,0.00,0.00,VWS V14.00,2013-04-02 08:05:00,
2013-04-02 03:10:00,64.7,59.8,29.67,SE,128,8.0,20.0,84,0.00,,---,0.00,0.00,VWS V14.00,2013-04-02 08:10:00,
2013-04-02 03:15:00,64.8,59.9,29.67,SE,134,9.0,17.0,84,0.00,,---,0.00,0.00,VWS V14.00,2013-04-02 08:15:00,
2013-04-02 03:20:00,64.9,60.0,29.68,SE,135,6.0,19.0,84,0.00,,---,0.00,0.00,VWS V14.00,2013-04-02 08:20:00,
2013-04-02 03:25:00,65.0,60.0,29.69,SE,135,5.0,14.0,84,0.00,,---,0.00,0.00,VWS V14.00,2013-04-02 08:25:00,
2013-04-02 03:30:00,65.1,60.2,29.69,SE,135,10.0,14.0,84,0.00,,---,0.00,0.00,VWS V14.00,2013-04-02 08:30:00,
2013-04-02 03:35:00,65.2,59.9,29.69,SE,140,6.0,10.0,83,0.00,,---,0.00,0.00,VWS V14.00,2013-04-02 08:35:00,
2013-04-02 03:40:00,65.2,59.9,29.69,SE,139,7.0,16.0,83,0.00,,---,0.00,0.00,VWS V14.00,2013-04-02 08:40:00,
2013-04-02 03:45:00,65.2,59.9,29.69,SE,142,7.0,16.0,83,0.00,,---,0.00,0.00,VWS V14.00,2013-04-02 08:45:00,
2013-04-02 03:50:00,65.2,59.9,29.69,SE,126,7.0,16.0,83,0.00,,---,0.00,0.00,VWS V14.00,2013-04-02 08:50:00,
2013-04-02 03:55:00,65.2,59.9,29.69,SSE,150,5.0,18.0,83,0.00,,---,0.00,0.00,VWS V14.00,2013-04-02 08:55:00,
2013-04-02 04:00:00,65.2,60.2,29.69,SE,141,5.0,18.0,84,0.00,,---,0.00,0.00,VWS V14.00,2013-04-02 09:00:00,
2013-04-02 04:05:00,65.2,60.2,29.69,SE,128,5.0,11.0,84,0.00,,---,0.00,0.00,VWS V14.00,2013-04-02 09:05:00,
2013-04-02 04:10:00,65.2,60.2,29.69,ESE,119,6.0,11.0,84,0.00,,---,0.00,0.00,VWS V14.00,2013-04-02 09:10:00,
2013-04-02 04:15:00,65.1,60.2,29.69,ESE,113,6.0,12.0,84,0.00,,---,0.00,0.00,VWS V14.00,2013-04-02 09:15:00,
2013-04-02 04:20:00,65.2,60.2,29.70,ESE,113,5.0,12.0,84,0.00,,---,0.00,0.00,VWS V14.00,2013-04-02 09:20:00,
2013-04-02 04:25:00,65.1,60.2,29.69,ESE,114,5.0,6.0,84,0.00,,---,0.00,0.00,VWS V14.00,2013-04-02 09:25:00,
2013-04-02 04:30:00,65.1,60.2,29.69,ESE,113,9.0,9.0,84,0.00,,---,0.00,0.00,VWS V14.00,2013-04-02 09:30:00,
2013-04-02 04:35:00,65.1,60.2,29.70,ESE,115,5.0,8.0,84,0.00,,---,0.00,0.00,VWS V14.00,2013-04-02 09:35:00,
2013-04-02 04:40:00,65.1,60.2,29.70,ESE,115,6.0,12.0,84,0.00,,---,0.00,0.00,VWS V14.00,2013-04-02 09:40:00,
2013-04-02 04:45:00,65.1,59.8,29.70,ESE,118,7.0,12.0,83,0.00,,---,0.00,0.00,VWS V14.00,2013-04-02 09:45:00,
2013-04-02 04:50:00,65.1,59.8,29.69,ESE,116,7.0,12.0,83,0.00,,---,0.00,0.00,VWS V14.00,2013-04-02 09:50:00,
2013-04-02 04:55:00,65.1,59.8,29.69,ESE,119,6.0,12.0,83,0.00,,---,0.00,0.00,VWS V14.00,2013-04-02 09:55:00,
2013-04-02 05:00:00,65.1,60.2,29.69,ESE,120,6.0,12.0,84,0.00,,---,0.00,0.00,VWS V14.00,2013-04-02 10:00:00,
2013-04-02 05:05:00,65.0,59.7,29.70,ESE,122,6.0,11.0,83,0.00,,---,0.00,0.00,VWS V14.00,2013-04-02 10:05:00,
2013-04-02 05:10:00,65.0,60.0,29.69,ESE,123,7.0,11.0,84,0.00,,---,0.00,0.00,VWS V14.00,2013-04-02 10:10:00,
2013-04-02 05:15:00,65.0,60.0,29.68,ESE,119,6.0,9.0,84,0.00,,---,0.00,0.00,VWS V14.00,2013-04-02 10:15:00,
2013-04-02 05:20:00,64.9,59.6,29.69,ESE,115,1.0,9.0,83,0.00,,---,0.00,0.00,VWS V14.00,2013-04-02 10:20:00,
2013-04-02 05:25:00,64.9,59.6,29.69,ESE,115,6.0,6.0,83,0.00,,---,0.00,0.00,VWS V14.00,2013-04-02 10:25:00,
2013-04-02 05:30:00,64.9,60.0,29.69,ESE,115,6.0,7.0,84,0.00,,---,0.00,0.00,VWS V14.00,2013-04-02 10:30:00,
2013-04-02 05:35:00,64.9,60.0,29.69,ESE,115,5.0,6.0,84,0.00,,---,0.00,0.00,VWS V14.00,2013-04-02 10:35:00,
2013-04-02 05:40:00,64.9,60.0,29.69,ESE,115,5.0,6.0,84,0.00,,---,0.00,0.00,VWS V14.00,2013-04-02 10:40:00,
2013-04-02 05:45:00,64.9,60.0,29.69,ESE,115,4.0,7.0,84,0.00,,---,0.00,0.00,VWS V14.00,2013-04-02 10:45:00,
2013-04-02 05:50:00,64.9,60.0,29.69,ESE,117,5.0,8.0,84,0.00,,---,0.00,0.00,VWS V14.00,2013-04-02 10:50:00,
2013-04-02 05:55:00,64.9,60.0,29.69,ESE,117,2.0,6.0,84,0.00,,---,0.00,0.00,VWS V14.00,2013-04-02 10:55:00,
2013-04-02 06:00:00,64.9,60.0,29.69,ESE,117,5.0,8.0,84,0.00,,---,0.00,0.00,VWS V14.00,2013-04-02 11:00:00,
2013-04-02 06:05:00,64.9,60.0,29.69,ESE,117,5.0,8.0,84,0.00,,---,0.00,0.00,VWS V14.00,2013-04-02 11:05:00,
2013-04-02 06:10:00,64.9,60.0,29.69,ESE,123,5.0,12.0,84,0.00,,---,0.00,0.00,VWS V14.00,2013-04-02 11:10:00,
2013-04-02 06:15:00,64.9,60.0,29.69,ESE,123,1.0,8.0,84,0.00,,---,0.00,0.00,VWS V14.00,2013-04-02 11:15:00,
2013-04-02 06:20:00,64.8,59.9,29.69,ESE,123,8.0,11.0,84,0.00,,---,0.00,0.00,VWS V14.00,2013-04-02 11:20:00,
2013-04-02 06:25:00,64.8,59.9,29.69,SE,125,5.0,11.0,84,0.00,,---,0.00,0.00,VWS V14.00,2013-04-02 11:25:00,
2013-04-02 06:30:00,64.8,60.2,29.69,SE,125,2.0,11.0,85,0.00,,---,0.00,0.00,VWS V14.00,2013-04-02 11:30:00,
2013-04-02 06:35:00,64.8,60.2,29.69,SE,125,4.0,11.0,85,0.00,,---,0.00,0.00,VWS V14.00,2013-04-02 11:35:00,
2013-04-02 06:40:00,64.7,60.1,29.69,SE,125,6.0,11.0,85,0.00,,---,0.00,0.00,VWS V14.00,2013-04-02 11:40:00,
2013-04-02 06:45:00,64.8,60.2,29.69,SE,125,0.0,6.0,85,0.00,,---,0.00,0.00,VWS V14.00,2013-04-02 11:45:00,
2013-04-02 06:50:00,64.8,60.2,29.70,ESE,121,7.0,9.0,85,0.00,,---,0.00,0.00,VWS V14.00,2013-04-02 11:50:00,
2013-04-02 06:55:00,64.8,60.2,29.69,ESE,123,4.0,9.0,85,0.00,,---,0.00,0.00,VWS V14.00,2013-04-02 11:55:00,
2013-04-02 07:00:00,64.8,60.2,29.70,ESE,123,6.0,9.0,85,0.00,,---,0.00,0.00,VWS V14.00,2013-04-02 12:00:00,
2013-04-02 07:05:00,64.8,60.2,29.69,SE,134,7.0,13.0,85,0.00,,---,0.00,0.00,VWS V14.00,2013-04-02 12:05:00,
2013-04-02 07:10:00,64.8,60.2,29.69,SE,134,4.0,13.0,85,0.00,,---,0.00,0.00,VWS V14.00,2013-04-02 12:10:00,
2013-04-02 07:15:00,64.8,60.2,29.69,SE,134,2.0,8.0,85,0.00,,---,0.00,0.00,VWS V14.00,2013-04-02 12:15:00,
2013-04-02 07:20:00,64.8,60.2,29.69,SE,134,4.0,11.0,85,0.00,,---,0.00,0.00,VWS V14.00,2013-04-02 12:20:00,
2013-04-02 07:25:00,64.7,60.4,29.69,SE,128,6.0,13.0,86,0.00,,---,0.00,0.00,VWS V14.00,2013-04-02 12:25:00,
2013-04-02 07:30:00,64.7,60.4,29.68,SE,131,5.0,13.0,86,0.00,,---,0.00,5.00,VWS V14.00,2013-04-02 12:30:00,
2013-04-02 07:35:00,64.7,60.4,29.68,SE,127,8.0,12.0,86,0.00,,---,0.00,9.00,VWS V14.00,2013-04-02 12:35:00,
2013-04-02 07:40:00,64.6,60.3,29.67,ESE,114,11.0,14.0,86,0.00,,---,0.00,11.00,VWS V14.00,2013-04-02 12:40:00,
2013-04-02 07:45:00,64.5,60.5,29.67,SE,130,2.0,8.0,87,0.00,,---,0.00,12.00,VWS V14.00,2013-04-02 12:45:00,
2013-04-02 07:50:00,64.5,60.5,29.68,ESE,111,2.0,11.0,87,0.00,,---,0.00,16.00,VWS V14.00,2013-04-02 12:50:00,
2013-04-02 07:55:00,64.5,60.5,29.68,ESE,115,6.0,11.0,87,0.00,,---,0.00,26.00,VWS V14.00,2013-04-02 12:55:00,
2013-04-02 08:00:00,64.5,60.5,29.68,ESE,115,4.0,11.0,87,0.00,,---,0.00,21.00,VWS V14.00,2013-04-02 13:00:00,
2013-04-02 08:05:00,64.5,60.9,29.68,ESE,119,6.0,8.0,88,0.00,,---,0.00,23.00,VWS V14.00,2013-04-02 13:05:00,
2013-04-02 08:10:00,64.5,60.9,29.68,ESE,120,9.0,9.0,88,0.00,,---,0.00,33.00,VWS V14.00,2013-04-02 13:10:00,
2013-04-02 08:15:00,64.5,60.9,29.69,ESE,119,7.0,9.0,88,0.00,,---,0.00,40.00,VWS V14.00,2013-04-02 13:15:00,
2013-04-02 08:20:00,64.6,61.0,29.69,SE,129,2.0,17.0,88,0.00,,---,0.00,47.00,VWS V14.00,2013-04-02 13:20:00,
2013-04-02 08:25:00,64.7,61.1,29.69,SE,130,13.0,13.0,88,0.00,,---,0.00,62.00,VWS V14.00,2013-04-02 13:25:00,
2013-04-02 08:30:00,64.7,61.1,29.69,SE,144,7.0,14.0,88,0.00,,---,0.00,54.00,VWS V14.00,2013-04-02 13:30:00,
2013-04-02 08:35:00,64.7,61.1,29.69,SE,146,7.0,11.0,88,0.00,,---,0.00,79.00,VWS V14.00,2013-04-02 13:35:00,
2013-04-02 08:40:00,64.8,61.2,29.70,SSE,149,8.0,13.0,88,0.00,,---,0.00,77.00,VWS V14.00,2013-04-02 13:40:00,
2013-04-02 08:45:00,64.9,61.3,29.69,SSE,148,5.0,12.0,88,0.00,,---,0.00,76.00,VWS V14.00,2013-04-02 13:45:00,
2013-04-02 08:50:00,65.0,61.4,29.69,SE,145,2.0,15.0,88,0.00,,---,0.00,111.00,VWS V14.00,2013-04-02 13:50:00,
2013-04-02 08:55:00,65.2,61.6,29.69,SE,145,6.0,9.0,88,0.00,,---,0.00,125.00,VWS V14.00,2013-04-02 13:55:00,
2013-04-02 09:00:00,65.3,61.7,29.69,SE,145,10.0,10.0,88,0.00,,---,0.00,137.00,VWS V14.00,2013-04-02 14:00:00,
2013-04-02 09:05:00,65.6,61.6,29.69,SSE,148,5.0,11.0,87,0.00,,---,0.00,144.00,VWS V14.00,2013-04-02 14:05:00,
2013-04-02 09:10:00,65.6,61.6,29.69,SE,126,6.0,14.0,87,0.00,,---,0.00,105.00,VWS V14.00,2013-04-02 14:10:00,
2013-04-02 09:15:00,65.6,61.6,29.69,SE,129,7.0,11.0,87,0.00,,---,0.00,120.00,VWS V14.00,2013-04-02 14:15:00,
2013-04-02 09:20:00,65.7,61.7,29.70,SE,134,9.0,12.0,87,0.00,,---,0.00,241.00,VWS V14.00,2013-04-02 14:20:00,
2013-04-02 09:25:00,65.8,61.8,29.70,ESE,111,9.0,15.0,87,0.00,,---,0.00,176.00,VWS V14.00,2013-04-02 14:25:00,
2013-04-02 09:30:00,66.0,62.0,29.71,SE,129,8.0,15.0,87,0.00,,---,0.00,237.00,VWS V14.00,2013-04-02 14:30:00,
2013-04-02 09:35:00,66.1,61.8,29.71,SE,134,7.0,12.0,86,0.00,,---,0.00,181.00,VWS V14.00,2013-04-02 14:35:00,
2013-04-02 09:40:00,66.1,61.8,29.72,SE,142,4.0,15.0,86,0.00,,---,0.00,123.00,VWS V14.00,2013-04-02 14:40:00,
2013-04-02 09:45:00,66.1,61.8,29.72,SE,138,5.0,17.0,86,0.00,,---,0.00,193.00,VWS V14.00,2013-04-02 14:45:00,
2013-04-02 09:50:00,66.1,61.8,29.72,SSE,148,4.0,17.0,86,0.00,,---,0.00,295.00,VWS V14.00,2013-04-02 14:50:00,
2013-04-02 09:55:00,66.4,62.1,29.71,SSE,148,6.0,9.0,86,0.00,,---,0.00,232.00,VWS V14.00,2013-04-02 14:55:00,
2013-04-02 10:00:00,66.6,62.0,29.71,SSE,151,4.0,10.0,85,0.00,,---,0.00,290.00,VWS V14.00,2013-04-02 15:00:00,
2013-04-02 10:05:00,66.8,62.2,29.71,SSE,151,5.0,13.0,85,0.00,,---,0.00,255.00,VWS V14.00,2013-04-02 15:05:00,
2013-04-02 10:10:00,67.1,62.5,29.70,SE,142,5.0,13.0,85,0.00,,---,0.00,336.00,VWS V14.00,2013-04-02 15:10:00,
2013-04-02 10:15:00,67.4,62.1,29.70,SSE,148,6.0,13.0,83,0.00,,---,0.00,315.00,VWS V14.00,2013-04-02 15:15:00,
2013-04-02 10:20:00,67.7,62.4,29.71,SSE,148,5.0,13.0,83,0.00,,---,0.00,204.00,VWS V14.00,2013-04-02 15:20:00,
2013-04-02 10:25:00,67.8,62.1,29.72,SSE,159,8.0,11.0,82,0.00,,---,0.00,149.00,VWS V14.00,2013-04-02 15:25:00,
2013-04-02 10:30:00,67.9,62.2,29.72,SSE,159,2.0,11.0,82,0.00,,---,0.00,214.00,VWS V14.00,2013-04-02 15:30:00,
2013-04-02 10:35:00,67.9,61.9,29.71,SSE,154,6.0,12.0,81,0.00,,---,0.00,197.00,VWS V14.00,2013-04-02 15:35:00,
2013-04-02 10:40:00,67.9,61.9,29.71,SE,146,5.0,12.0,81,0.00,,---,0.00,287.00,VWS V14.00,2013-04-02 15:40:00,
2013-04-02 10:45:00,68.1,62.1,29.71,SE,146,7.0,12.0,81,0.00,,---,0.00,443.00,VWS V14.00,2013-04-02 15:45:00,
2013-04-02 10:50:00,68.8,62.7,29.70,SE,146,5.0,12.0,81,0.00,,---,0.00,411.00,VWS V14.00,2013-04-02 15:50:00,
2013-04-02 10:55:00,69.5,62.7,29.70,SSE,160,10.0,10.0,79,0.00,,---,0.00,388.00,VWS V14.00,2013-04-02 15:55:00,
2013-04-02 11:00:00,70.1,62.9,29.70,SE,144,10.0,12.0,78,0.00,,---,0.00,571.00,VWS V14.00,2013-04-02 16:00:00,
2013-04-02 11:05:00,70.4,62.5,29.70,SE,138,9.0,17.0,76,0.00,,---,0.00,408.00,VWS V14.00,2013-04-02 16:05:00,
2013-04-02 11:10:00,70.5,62.6,29.70,SE,128,13.0,19.0,76,0.00,,---,0.00,896.00,VWS V14.00,2013-04-02 16:10:00,
2013-04-02 11:15:00,70.9,63.0,29.70,South,178,9.0,10.0,76,0.00,,---,0.00,896.00,VWS V14.00,2013-04-02 16:15:00,
2013-04-02 11:20:00,71.5,62.8,29.70,SSE,147,11.0,19.0,74,0.00,,---,0.00,926.00,VWS V14.00,2013-04-02 16:20:00,
2013-04-02 11:25:00,72.3,63.2,29.70,SSE,166,9.0,13.0,73,0.00,,---,0.00,624.00,VWS V14.00,2013-04-02 16:25:00,
2013-04-02 11:30:00,72.2,62.3,29.70,SSE,160,4.0,13.0,71,0.00,,---,0.00,411.00,VWS V14.00,2013-04-02 16:30:00,
2013-04-02 11:35:00,71.8,62.3,29.70,SSE,163,5.0,12.0,72,0.00,,---,0.00,279.00,VWS V14.00,2013-04-02 16:35:00,
2013-04-02 11:40:00,71.7,62.6,29.70,SSE,165,8.0,12.0,73,0.00,,---,0.00,378.00,VWS V14.00,2013-04-02 16:40:00,
2013-04-02 11:45:00,72.0,62.5,29.70,SSE,160,7.0,13.0,72,0.00,,---,0.00,438.00,VWS V14.00,2013-04-02 16:45:00,
2013-04-02 11:50:00,72.7,62.8,29.69,SSE,161,1.0,13.0,71,0.00,,---,0.00,448.00,VWS V14.00,2013-04-02 16:50:00,
2013-04-02 11:55:00,73.1,62.3,29.69,SSE,157,4.0,12.0,69,0.00,,---,0.00,306.00,VWS V14.00,2013-04-02 16:55:00,
2013-04-02 12:00:00,73.1,62.3,29.69,SE,140,9.0,18.0,69,0.00,,---,0.00,413.00,VWS V14.00,2013-04-02 17:00:00,
2013-04-02 12:05:00,72.8,62.0,29.69,SE,142,7.0,11.0,69,0.00,,---,0.00,411.00,VWS V14.00,2013-04-02 17:05:00,
2013-04-02 12:10:00,72.7,62.0,29.69,SE,139,10.0,15.0,69,0.00,,---,0.00,404.00,VWS V14.00,2013-04-02 17:10:00,
2013-04-02 12:15:00,72.6,61.9,29.69,SE,138,8.0,15.0,69,0.00,,---,0.00,192.00,VWS V14.00,2013-04-02 17:15:00,
2013-04-02 12:20:00,72.4,61.7,29.69,SE,146,6.0,15.0,69,0.00,,---,0.00,169.00,VWS V14.00,2013-04-02 17:20:00,
2013-04-02 12:25:00,72.1,61.8,29.69,SE,145,9.0,11.0,70,0.00,,---,0.00,162.00,VWS V14.00,2013-04-02 17:25:00,
2013-04-02 12:30:00,72.0,61.7,29.69,SE,145,6.0,11.0,70,0.00,,---,0.00,142.00,VWS V14.00,2013-04-02 17:30:00,
2013-04-02 12:35:00,71.9,62.0,29.70,SSE,148,5.0,9.0,71,0.00,,---,0.00,109.00,VWS V14.00,2013-04-02 17:35:00,
2013-04-02 12:40:00,71.7,61.8,29.70,SE,144,9.0,10.0,71,0.00,,---,0.00,144.00,VWS V14.00,2013-04-02 17:40:00,
2013-04-02 12:45:00,71.5,62.0,29.69,SE,144,2.0,10.0,72,0.00,,---,0.00,253.00,VWS V14.00,2013-04-02 17:45:00,
2013-04-02 12:50:00,71.5,62.0,29.69,SE,144,2.0,10.0,72,0.00,,---,0.00,134.00,VWS V14.00,2013-04-02 17:50:00,
2013-04-02 12:55:00,71.7,62.2,29.68,SE,144,1.0,6.0,72,0.00,,---,0.00,72.00,VWS V14.00,2013-04-02 17:55:00,
2013-04-02 13:00:00,71.6,61.7,29.68,SE,145,6.0,11.0,71,0.00,,---,0.00,65.00,VWS V14.00,2013-04-02 18:00:00,
2013-04-02 13:05:00,71.5,62.0,29.67,SE,145,2.0,8.0,72,0.00,,---,0.00,200.00,VWS V14.00,2013-04-02 18:05:00,
2013-04-02 13:10:00,71.5,62.0,29.67,SE,145,2.0,8.0,72,0.00,,---,0.00,171.00,VWS V14.00,2013-04-02 18:10:00,
2013-04-02 13:15:00,71.6,62.1,29.67,SE,144,4.0,8.0,72,0.00,,---,0.00,135.00,VWS V14.00,2013-04-02 18:15:00,
2013-04-02 13:20:00,71.6,62.1,29.67,SE,132,6.0,12.0,72,0.00,,---,0.00,118.00,VWS V14.00,2013-04-02 18:20:00,
2013-04-02 13:25:00,71.6,62.1,29.67,SE,132,5.0,7.0,72,0.00,,---,0.00,149.00,VWS V14.00,2013-04-02 18:25:00,
2013-04-02 13:30:00,71.7,62.2,29.66,SE,132,4.0,7.0,72,0.00,,---,0.00,125.00,VWS V14.00,2013-04-02 18:30:00,
2013-04-02 13:35:00,71.8,61.9,29.66,SE,132,4.0,8.0,71,0.00,,---,0.00,185.00,VWS V14.00,2013-04-02 18:35:00,
2013-04-02 13:40:00,71.9,62.0,29.65,SE,132,8.0,12.0,71,0.00,,---,0.00,285.00,VWS V14.00,2013-04-02 18:40:00,
2013-04-02 13:45:00,72.2,62.3,29.65,SE,135,4.0,12.0,71,0.00,,---,0.00,341.00,VWS V14.00,2013-04-02 18:45:00,
2013-04-02 13:51:00,72.6,62.3,29.64,SE,136,7.0,14.0,70,0.00,,---,0.00,446.00,VWS V14.00,2013-04-02 18:51:00,
2013-04-02 13:56:00,73.1,62.3,29.64,SE,139,7.0,14.0,69,0.00,,---,0.00,411.00,VWS V14.00,2013-04-02 18:56:00,
2013-04-02 14:01:00,73.4,62.2,29.64,SE,140,1.0,14.0,68,0.00,,---,0.00,239.00,VWS V14.00,2013-04-02 19:01:00,
2013-04-02 14:06:00,73.6,62.0,29.64,SE,135,7.0,12.0,67,0.00,,---,0.00,185.00,VWS V14.00,2013-04-02 19:06:00,
2013-04-02 14:11:00,73.3,61.7,29.64,SE,131,5.0,14.0,67,0.00,,---,0.00,127.00,VWS V14.00,2013-04-02 19:11:00,
2013-04-02 14:16:00,73.0,61.8,29.64,SE,131,6.0,12.0,68,0.00,,---,0.00,120.00,VWS V14.00,2013-04-02 19:16:00,
2013-04-02 14:21:00,72.7,62.0,29.63,SE,131,8.0,12.0,69,0.00,,---,0.00,188.00,VWS V14.00,2013-04-02 19:21:00,
2013-04-02 14:26:00,72.5,61.8,29.63,SE,131,6.0,12.0,69,0.00,,---,0.00,135.00,VWS V14.00,2013-04-02 19:26:00,
2013-04-02 14:31:00,72.4,62.1,29.63,SE,131,1.0,12.0,70,0.00,,---,0.00,70.00,VWS V14.00,2013-04-02 19:31:00,
2013-04-02 14:37:00,72.2,61.9,29.63,SE,131,5.0,9.0,70,0.00,,---,0.00,76.00,VWS V14.00,2013-04-02 19:37:00,
2013-04-02 14:42:00,72.0,61.7,29.63,SE,131,4.0,5.0,70,0.00,,---,0.00,76.00,VWS V14.00,2013-04-02 19:42:00,
2013-04-02 14:47:00,71.9,62.0,29.63,SE,131,4.0,7.0,71,0.00,,---,0.00,46.00,VWS V14.00,2013-04-02 19:47:00,
2013-04-02 14:52:00,71.8,61.9,29.63,SE,131,1.0,4.0,71,0.00,,---,0.00,40.00,VWS V14.00,2013-04-02 19:52:00,
2013-04-02 14:57:00,71.7,61.8,29.63,SE,131,4.0,6.0,71,0.00,,---,0.00,30.00,VWS V14.00,2013-04-02 19:57:00,
2013-04-02 15:02:00,71.6,62.1,29.63,SE,131,0.0,0.0,72,0.00,,---,0.00,28.00,VWS V14.00,2013-04-02 20:02:00,
2013-04-02 15:07:00,71.6,62.1,29.63,SE,131,4.0,5.0,72,0.00,,---,0.00,51.00,VWS V14.00,2013-04-02 20:07:00,
2013-04-02 15:12:00,71.6,62.1,29.63,SE,131,4.0,5.0,72,0.00,,---,0.00,33.00,VWS V14.00,2013-04-02 20:12:00,
2013-04-02 15:17:00,71.5,62.4,29.63,SE,131,2.0,7.0,73,0.00,,---,0.00,42.00,VWS V14.00,2013-04-02 20:17:00,
2013-04-02 15:22:00,71.5,62.4,29.62,SE,131,2.0,2.0,73,0.00,,---,0.00,60.00,VWS V14.00,2013-04-02 20:22:00,
2013-04-02 15:27:00,71.4,62.3,29.62,SE,131,0.0,5.0,73,0.00,,---,0.00,67.00,VWS V14.00,2013-04-02 20:27:00,
2013-04-02 15:32:00,71.4,62.3,29.62,SE,131,5.0,5.0,73,0.00,,---,0.00,81.00,VWS V14.00,2013-04-02 20:32:00,
2013-04-02 15:37:00,71.4,62.3,29.62,SE,131,0.0,5.0,73,0.00,,---,0.00,109.00,VWS V14.00,2013-04-02 20:37:00,
2013-04-02 15:42:00,71.4,62.3,29.62,SE,131,1.0,5.0,73,0.00,,---,0.00,83.00,VWS V14.00,2013-04-02 20:42:00,
2013-04-02 15:47:00,71.4,62.3,29.61,SE,131,0.0,7.0,73,0.00,,---,0.00,70.00,VWS V14.00,2013-04-02 20:47:00,
2013-04-02 15:53:00,71.5,62.4,29.62,SE,131,0.0,6.0,73,0.00,,---,0.00,58.00,VWS V14.00,2013-04-02 20:53:00,
2013-04-02 15:57:00,71.5,62.0,29.61,SE,131,0.0,6.0,72,0.00,,---,0.00,60.00,VWS V14.00,2013-04-02 20:57:00,
2013-04-02 16:02:00,71.2,63.3,29.61,SE,131,0.0,0.0,76,0.00,,---,0.00,42.00,VWS V14.00,2013-04-02 21:02:00,
2013-04-02 16:07:00,70.6,63.4,29.61,SE,131,2.0,6.0,78,0.00,,---,0.00,30.00,VWS V14.00,2013-04-02 21:07:00,
2013-04-02 16:12:00,69.5,62.7,29.61,SE,130,0.0,8.0,79,0.00,,---,0.00,28.00,VWS V14.00,2013-04-02 21:12:00,
2013-04-02 16:18:00,68.6,62.2,29.61,SE,130,4.0,8.0,80,0.00,,---,0.00,33.00,VWS V14.00,2013-04-02 21:18:00,
2013-04-02 16:23:00,67.7,61.7,29.61,SE,130,9.0,9.0,81,0.00,,---,0.00,19.00,VWS V14.00,2013-04-02 21:23:00,
2013-04-02 16:28:00,66.7,61.4,29.61,SE,129,8.0,11.0,83,0.00,,---,0.00,12.00,VWS V14.00,2013-04-02 21:28:00,
2013-04-02 16:33:00,66.1,61.1,29.61,SE,127,7.0,9.0,84,0.00,,---,0.00,9.00,VWS V14.00,2013-04-02 21:33:00,
2013-04-02 16:38:00,65.3,60.3,29.62,SE,127,4.0,12.0,84,0.00,,---,0.00,14.00,VWS V14.00,2013-04-02 21:38:00,
2013-04-02 16:43:00,64.3,60.0,29.61,ESE,118,9.0,13.0,86,0.00,,---,0.00,32.00,VWS V14.00,2013-04-02 21:43:00,
2013-04-02 16:48:00,63.5,59.9,29.61,ESE,114,6.0,13.0,88,0.01,,---,0.01,49.00,VWS V14.00,2013-04-02 21:48:00,
2013-04-02 16:53:00,63.0,59.7,29.61,ESE,114,7.0,11.0,89,0.02,,---,0.02,30.00,VWS V14.00,2013-04-02 21:53:00,
2013-04-02 16:58:00,62.7,60.0,29.61,ESE,113,8.0,12.0,91,0.03,,---,0.03,56.00,VWS V14.00,2013-04-02 21:58:00,
2013-04-02 17:03:00,62.6,60.2,29.60,ESE,113,9.0,9.0,92,0.03,,---,0.03,72.00,VWS V14.00,2013-04-02 22:03:00,
2013-04-02 17:08:00,62.6,60.2,29.60,ESE,113,5.0,9.0,92,0.03,,---,0.03,53.00,VWS V14.00,2013-04-02 22:08:00,
2013-04-02 17:13:00,62.6,60.2,29.60,ESE,113,6.0,11.0,92,0.04,,---,0.04,44.00,VWS V14.00,2013-04-02 22:13:00,
2013-04-02 17:18:00,62.6,60.5,29.60,ESE,111,5.0,13.0,93,0.04,,---,0.04,49.00,VWS V14.00,2013-04-02 22:18:00,
2013-04-02 17:23:00,62.6,60.5,29.60,ESE,111,4.0,7.0,93,0.04,,---,0.04,32.00,VWS V14.00,2013-04-02 22:23:00,
2013-04-02 17:28:00,62.6,60.5,29.60,ESE,111,9.0,9.0,93,0.04,,---,0.04,40.00,VWS V14.00,2013-04-02 22:28:00,
2013-04-02 17:33:00,62.6,60.5,29.59,ESE,111,4.0,8.0,93,0.04,,---,0.04,33.00,VWS V14.00,2013-04-02 22:33:00,
2013-04-02 17:38:00,62.6,60.8,29.60,ESE,111,5.0,9.0,94,0.04,,---,0.04,26.00,VWS V14.00,2013-04-02 22:38:00,
2013-04-02 17:43:00,62.6,60.8,29.60,ESE,111,2.0,7.0,94,0.04,,---,0.04,23.00,VWS V14.00,2013-04-02 22:43:00,
2013-04-02 17:48:00,62.6,60.8,29.60,ESE,111,4.0,7.0,94,0.04,,---,0.04,26.00,VWS V14.00,2013-04-02 22:48:00,
2013-04-02 17:53:00,62.6,60.8,29.60,ESE,111,4.0,6.0,94,0.02,,---,0.04,14.00,VWS V14.00,2013-04-02 22:53:00,
2013-04-02 17:58:00,62.6,60.8,29.61,ESE,111,5.0,7.0,94,0.02,,---,0.04,9.00,VWS V14.00,2013-04-02 22:58:00,
2013-04-02 18:03:00,62.4,60.7,29.60,ESE,111,2.0,7.0,94,0.01,,---,0.04,18.00,VWS V14.00,2013-04-02 23:03:00,
2013-04-02 18:08:00,62.3,60.6,29.60,ESE,111,2.0,9.0,94,0.01,,---,0.04,12.00,VWS V14.00,2013-04-02 23:08:00,
2013-04-02 18:13:00,62.2,60.5,29.60,ESE,111,2.0,5.0,94,0.01,,---,0.05,7.00,VWS V14.00,2013-04-02 23:13:00,
2013-04-02 18:18:00,62.2,60.5,29.60,ESE,111,2.0,6.0,94,0.01,,---,0.05,0.00,VWS V14.00,2013-04-02 23:18:00,
2013-04-02 18:23:00,62.2,60.5,29.61,ESE,111,0.0,4.0,94,0.01,,---,0.05,0.00,VWS V14.00,2013-04-02 23:23:00,
2013-04-02 18:28:00,62.3,60.6,29.61,ESE,111,0.0,4.0,94,0.01,,---,0.05,9.00,VWS V14.00,2013-04-02 23:28:00,
2013-04-02 18:34:00,62.4,60.7,29.61,ESE,111,2.0,5.0,94,0.01,,---,0.05,11.00,VWS V14.00,2013-04-02 23:34:00,
2013-04-02 18:39:00,62.5,60.8,29.61,ESE,111,1.0,6.0,94,0.01,,---,0.05,11.00,VWS V14.00,2013-04-02 23:39:00,
2013-04-02 18:44:00,62.5,60.8,29.60,ESE,111,6.0,8.0,94,0.01,,---,0.05,12.00,VWS V14.00,2013-04-02 23:44:00,
2013-04-02 18:49:00,62.5,60.8,29.61,ESE,111,9.0,9.0,94,0.01,,---,0.05,11.00,VWS V14.00,2013-04-02 23:49:00,
2013-04-02 18:54:00,62.4,60.7,29.61,ESE,111,4.0,9.0,94,0.01,,---,0.05,7.00,VWS V14.00,2013-04-02 23:54:00,
2013-04-02 18:59:00,62.3,60.6,29.61,ESE,111,1.0,9.0,94,0.01,,---,0.05,5.00,VWS V14.00,2013-04-02 23:59:00,
2013-04-02 19:04:00,62.1,60.4,29.60,ESE,111,7.0,8.0,94,0.01,,---,0.05,5.00,VWS V14.00,2013-04-03 00:04:00,
2013-04-02 19:09:00,61.8,60.1,29.61,ESE,111,2.0,8.0,94,0.01,,---,0.05,5.00,VWS V14.00,2013-04-03 00:09:00,
2013-04-02 19:14:00,61.7,60.0,29.61,ESE,111,0.0,5.0,94,0.01,,---,0.05,5.00,VWS V14.00,2013-04-03 00:14:00,
2013-04-02 19:19:00,61.6,59.9,29.61,ESE,111,2.0,6.0,94,0.01,,---,0.05,0.00,VWS V14.00,2013-04-03 00:19:00,
2013-04-02 19:24:00,61.4,59.7,29.61,ESE,111,5.0,8.0,94,0.00,,---,0.05,0.00,VWS V14.00,2013-04-03 00:24:00,
2013-04-02 19:29:00,61.3,59.6,29.61,ESE,111,2.0,8.0,94,0.00,,---,0.05,0.00,VWS V14.00,2013-04-03 00:29:00,
2013-04-02 19:34:00,61.2,59.5,29.61,ESE,111,4.0,6.0,94,0.00,,---,0.05,0.00,VWS V14.00,2013-04-03 00:34:00,
2013-04-02 19:39:00,61.1,59.4,29.62,ESE,111,2.0,6.0,94,0.00,,---,0.05,0.00,VWS V14.00,2013-04-03 00:39:00,
2013-04-02 19:44:00,61.1,59.4,29.62,ESE,111,4.0,4.0,94,0.00,,---,0.05,0.00,VWS V14.00,2013-04-03 00:44:00,
2013-04-02 19:50:00,61.1,59.4,29.62,ESE,111,0.0,5.0,94,0.00,,---,0.05,0.00,VWS V14.00,2013-04-03 00:50:00,
2013-04-02 19:55:00,61.1,59.4,29.62,ESE,111,1.0,5.0,94,0.00,,---,0.05,0.00,VWS V14.00,2013-04-03 00:55:00,
2013-04-02 20:00:00,61.1,59.4,29.62,ESE,111,4.0,6.0,94,0.00,,---,0.05,0.00,VWS V14.00,2013-04-03 01:00:00,
2013-04-02 20:05:00,61.1,59.4,29.62,ESE,111,4.0,7.0,94,0.00,,---,0.05,0.00,VWS V14.00,2013-04-03 01:05:00,
2013-04-02 20:10:00,61.1,59.4,29.62,ESE,111,5.0,8.0,94,0.00,,---,0.05,0.00,VWS V14.00,2013-04-03 01:10:00,
2013-04-02 20:15:00,61.1,59.4,29.62,ESE,111,5.0,7.0,94,0.00,,---,0.05,0.00,VWS V14.00,2013-04-03 01:15:00,
2013-04-02 20:20:00,61.1,59.4,29.63,ESE,111,4.0,7.0,94,0.00,,---,0.05,0.00,VWS V14.00,2013-04-03 01:20:00,
2013-04-02 20:25:00,61.2,59.5,29.63,ESE,111,5.0,5.0,94,0.00,,---,0.05,0.00,VWS V14.00,2013-04-03 01:25:00,
2013-04-02 20:30:00,61.2,59.5,29.63,ESE,111,5.0,6.0,94,0.00,,---,0.05,0.00,VWS V14.00,2013-04-03 01:30:00,
2013-04-02 20:35:00,61.3,59.6,29.63,ESE,111,5.0,6.0,94,0.00,,---,0.05,0.00,VWS V14.00,2013-04-03 01:35:00,
2013-04-02 20:40:00,61.3,59.6,29.63,ESE,111,4.0,6.0,94,0.00,,---,0.05,0.00,VWS V14.00,2013-04-03 01:40:00,
2013-04-02 20:45:00,61.4,59.7,29.63,ESE,111,1.0,5.0,94,0.00,,---,0.05,0.00,VWS V14.00,2013-04-03 01:45:00,
2013-04-02 20:50:00,61.5,60.1,29.63,ESE,111,2.0,7.0,95,0.00,,---,0.05,0.00,VWS V14.00,2013-04-03 01:50:00,
2013-04-02 20:55:00,61.5,60.1,29.63,ESE,111,4.0,5.0,95,0.00,,---,0.05,0.00,VWS V14.00,2013-04-03 01:55:00,
2013-04-02 21:00:00,61.5,60.1,29.64,ESE,111,1.0,5.0,95,0.00,,---,0.05,0.00,VWS V14.00,2013-04-03 02:00:00,
2013-04-02 21:05:00,61.6,60.2,29.64,ESE,111,2.0,5.0,95,0.00,,---,0.05,0.00,VWS V14.00,2013-04-03 02:05:00,
2013-04-02 21:10:00,61.6,60.2,29.64,ESE,111,4.0,5.0,95,0.01,,---,0.06,0.00,VWS V14.00,2013-04-03 02:10:00,
2013-04-02 21:15:00,61.7,60.3,29.64,ESE,111,2.0,6.0,95,0.01,,---,0.06,0.00,VWS V14.00,2013-04-03 02:15:00,
2013-04-02 21:20:00,61.7,60.3,29.64,ESE,111,4.0,7.0,95,0.01,,---,0.06,0.00,VWS V14.00,2013-04-03 02:20:00,
2013-04-02 21:25:00,61.7,60.3,29.64,ESE,111,5.0,7.0,95,0.01,,---,0.06,0.00,VWS V14.00,2013-04-03 02:25:00,
2013-04-02 21:30:00,61.8,60.4,29.64,ESE,111,4.0,8.0,95,0.01,,---,0.06,0.00,VWS V14.00,2013-04-03 02:30:00,
2013-04-02 21:35:00,61.8,60.4,29.64,ESE,111,2.0,6.0,95,0.01,,---,0.06,0.00,VWS V14.00,2013-04-03 02:35:00,
2013-04-02 21:40:00,61.9,60.5,29.64,ESE,111,2.0,7.0,95,0.01,,---,0.06,0.00,VWS V14.00,2013-04-03 02:40:00,
2013-04-02 21:45:00,61.9,60.5,29.65,ESE,111,4.0,7.0,95,0.01,,---,0.06,0.00,VWS V14.00,2013-04-03 02:45:00,
2013-04-02 21:50:00,61.9,60.5,29.66,ESE,111,0.0,7.0,95,0.01,,---,0.06,0.00,VWS V14.00,2013-04-03 02:50:00,
2013-04-02 21:55:00,62.0,60.6,29.67,ESE,111,2.0,4.0,95,0.01,,---,0.06,0.00,VWS V14.00,2013-04-03 02:55:00,
2013-04-02 22:00:00,61.4,59.7,29.70,WNW,287,22.0,31.0,94,0.02,,---,0.07,0.00,VWS V14.00,2013-04-03 03:00:00,
2013-04-02 22:05:00,57.1,53.9,29.71,NW,321,14.0,22.0,89,0.02,,---,0.07,0.00,VWS V14.00,2013-04-03 03:05:00,
2013-04-02 22:11:00,53.7,50.2,29.73,NW,318,6.0,27.0,88,0.02,,---,0.07,0.00,VWS V14.00,2013-04-03 03:11:00,
2013-04-02 22:16:00,51.7,48.6,29.73,West,281,9.0,23.0,89,0.01,,---,0.07,0.00,VWS V14.00,2013-04-03 03:16:00,
2013-04-02 22:21:00,50.4,47.6,29.85,WNW,290,18.0,34.0,90,0.03,,---,0.09,0.00,VWS V14.00,2013-04-03 03:21:00,
2013-04-02 22:26:00,48.8,46.0,29.81,WNW,285,13.0,38.0,90,0.26,,---,0.32,0.00,VWS V14.00,2013-04-03 03:26:00,
2013-04-02 22:31:00,47.5,45.0,29.87,NW,307,8.0,38.0,91,0.37,,---,0.43,0.00,VWS V14.00,2013-04-03 03:31:00,
2013-04-02 22:36:00,47.0,44.8,29.84,West,277,8.0,16.0,92,0.45,,---,0.51,0.00,VWS V14.00,2013-04-03 03:36:00,
2013-04-02 22:41:00,46.7,44.8,29.81,NW,315,5.0,16.0,93,0.49,,---,0.55,0.00,VWS V14.00,2013-04-03 03:41:00,
2013-04-02 22:46:00,46.7,44.8,29.81,WNW,293,7.0,13.0,93,0.53,,---,0.59,0.00,VWS V14.00,2013-04-03 03:46:00,
2013-04-02 22:51:00,46.7,44.8,29.82,WNW,295,4.0,13.0,93,0.55,,---,0.61,0.00,VWS V14.00,2013-04-03 03:51:00,
2013-04-02 22:56:00,46.6,44.7,29.83,WNW,295,2.0,5.0,93,0.56,,---,0.62,0.00,VWS V14.00,2013-04-03 03:56:00,
2013-04-02 23:00:00,46.6,45.0,29.83,WNW,295,0.0,5.0,94,0.57,,---,0.63,0.00,VWS V14.00,2013-04-03 04:00:00,
2013-04-02 23:05:00,46.6,45.0,29.82,WNW,295,0.0,0.0,94,0.57,,---,0.64,0.00,VWS V14.00,2013-04-03 04:05:00,
2013-04-02 23:10:00,46.6,45.0,29.79,WNW,299,4.0,5.0,94,0.59,,---,0.66,0.00,VWS V14.00,2013-04-03 04:10:00,
2013-04-02 23:15:00,47.2,45.6,29.76,North,355,2.0,7.0,94,0.62,,---,0.69,0.00,VWS V14.00,2013-04-03 04:15:00,
2013-04-02 23:20:00,47.7,46.3,29.74,North,355,2.0,7.0,95,0.65,,---,0.72,0.00,VWS V14.00,2013-04-03 04:20:00,
2013-04-02 23:25:00,48.2,46.8,29.73,North,355,2.0,6.0,95,0.63,,---,0.73,0.00,VWS V14.00,2013-04-03 04:25:00,
2013-04-02 23:30:00,48.4,47.0,29.71,SE,135,4.0,10.0,95,0.64,,---,0.74,0.00,VWS V14.00,2013-04-03 04:30:00,
2013-04-02 23:35:00,48.7,47.3,29.67,SE,130,9.0,17.0,95,0.32,,---,0.76,0.00,VWS V14.00,2013-04-03 04:35:00,
2013-04-02 23:40:00,48.9,47.5,29.67,SSE,150,11.0,18.0,95,0.32,,---,0.76,0.00,VWS V14.00,2013-04-03 04:40:00,
2013-04-02 23:45:00,49.3,47.9,29.70,SE,130,6.0,16.0,95,0.21,,---,0.76,0.00,VWS V14.00,2013-04-03 04:45:00,
2013-04-02 23:50:00,49.7,48.3,29.76,ESE,119,0.0,16.0,95,0.21,,---,0.76,0.00,VWS V14.00,2013-04-03 04:50:00,
2013-04-02 23:55:00,49.7,48.3,29.75,ESE,119,0.0,4.0,95,0.15,,---,0.76,0.00,VWS V14.00,2013-04-03 04:55:00,